Location: *
(44.1392°N, 4.8079°E)
Time: 21:06:06
(UTC+00:00)

deb Agena D - Pass Details

Date: 02 February 2022
Orbit: 936 x 1065 km, 100.4° (Epoch: 16 May)

Event Time Altitude Azimuth Distance (km) Brightness Sun altitude
Exits shadow 20:45:05 15° 349° (N) 2,496 ? -41.7°
Drops below altitude 10° 20:46:04 10° 348° (NNW) 2,859 ? -41.9°
Sets 20:48:37 0° 346° (NNW) 3,830 ? -42.3°
